Location: Unspecified
(0.0000°N, 0.0000°E)
Time: 21:36:24
(UTC+00:00)

N. Korean satellite - Pass Details

Date: 02 July 2020
Orbit: 455 x 503 km, 97.2° (Epoch: 28 September)

Event Time Altitude Azimuth Distance (km) Brightness Sun altitude
Rises 04:43:35 0° 31° (NNE) 2,461 11.1 -18.5°
Reaches altitude 10° 04:45:53 10° 46° (NE) 1,587 10.3 -18.0°
Maximum altitude 04:48:40 24° 101° (E) 992 8.7 -17.3°
Drops below altitude 10° 04:51:27 10° 156° (SSE) 1,591 9.2 -16.7°
Enters shadow 04:54:18 -2° 172° (S) 2,687 10.2 -16.0°
